International Virtual Aviation Organisation

Russian Federation and Kazakhstan MCD

 

Карточка аэропорта UIII

Внимание!
Информация на этой странице в стадии наполнения.
Если вы не увидели какой-то информации, или заметили неточность - пожалуйста сообщите нам!
Спасибо!
Команда RU-STAFF
Название аэропортаИркутск
Название аэропорта (англ.)Irkutsk
Превышение1686 ft. (513.9 m.)
Координаты52°16.032', 104°23.7'
Высота перехода1100m
Эшелон переходаFL070
Коды ответчика3330-3347
Зона ОрВДИркутск РПИ (UIII)
Данные METARUIII 250500Z 29002MPS 270V330 9999 FEW033 M11/M14 Q1036 R12/810350 NOSIG RMK QFE734/0979
Проноз погоды (TAF)UIII 250200Z 2503/2603 03003MPS 9999 BKN040
NOTAMshow/hide NOTAM
AWOS   TABLE

Информация о ВПП

ВПП Длина ВПП (м.) Покрытие Курс ВПП Частота ILS
123565Железобетон117111.3
303565Железобетон297110.3

Диспетчерские позиции

Позывной Наименование органа УВД Частота
UIII_APPИркутск-Подход125.2
UIII_FSSИркутск-Транзит128.5
UIII_GNDИркутск-Руление121.7
UIII_R_APPИркутск-Круг119.3
UIII_TWRИркутск-Вышка118.1



Спутниковое изображение